Location: Étang Rond
(42.7927°N, 1.0661°E)
Time: 23:21:34
(UTC+00:00)

Cosmos 2360 Rocket - Pass Details

Date: 08 November 2025
Orbit: 833 x 843 km, 71.0° (Epoch: 13 December)

Event Time Altitude Azimuth Distance (km) Brightness Sun altitude
Exits shadow 03:59:25 21° 359° (N) 1,812 3.9 -29.5°
Drops below altitude 10° 04:01:27 10° 11° (N) 2,471 4.8 -29.1°
Sets 04:04:04 0° 19° (NNE) 3,409 5.6 -28.6°
